This is the latest recevied weather packets stored in our database for station/object KC5TIL. If no packets are shown the sender has not sent any weather packets the latest 10 day(s).
| Time | Temp. | Humidity | Pressure | Rain* | Wind** | Luminosity | Snow |
|---|---|---|---|---|---|---|---|
| 1787872850 | 36.67° C | 37% | 1013.4 hPa | 0 mm | - | 58 W/m² | - |
| 1787872546 | 37.22° C | 38% | 1013.6 hPa | 0 mm | - | 123 W/m² | - |
| 1787872241 | 37.22° C | 38% | 1013.6 hPa | 0 mm | - | 180 W/m² | - |
| 1787871940 | 37.22° C | 38% | 1013.4 hPa | 0 mm | - | 218 W/m² | - |
| 1787871636 | 37.22° C | 38% | 1013.7 hPa | 0 mm | - | 206 W/m² | - |
| 1787871332 | 37.22° C | 37% | 1013.6 hPa | 0 mm | - | 248 W/m² | - |
| 1787871027 | 37.78° C | 37% | 1013.4 hPa | 0 mm | - | 248 W/m² | - |
| 1787870726 | 37.22° C | 36% | 1013.9 hPa | 0 mm | - | 261 W/m² | - |
| 1787870421 | 37.78° C | 37% | 1013.6 hPa | 0 mm | - | 278 W/m² | - |
| 1787870116 | 37.22° C | 39% | 1013.5 hPa | 0 mm | - | 289 W/m² | - |
| 1787869815 | 37.78° C | 36% | 1013.6 hPa | 0 mm | - | 283 W/m² | - |
| 1787869509 | 37.78° C | 37% | 1013.7 hPa | 0 mm | - | 291 W/m² | - |
| 1787869210 | 37.78° C | 37% | 1013.5 hPa | 0 mm | - | 337 W/m² | - |
| 1787868903 | 37.78° C | 37% | 1013.8 hPa | 0 mm | - | 363 W/m² | - |
| 1787868602 | 37.78° C | 38% | 1013.8 hPa | 0 mm | - | 353 W/m² | - |
| 1787868301 | 38.33° C | 39% | 1013.8 hPa | 0 mm | - | 367 W/m² | - |
| 1787867996 | 38.33° C | 37% | 1013.9 hPa | 0 mm | - | 406 W/m² | - |
| 1787867691 | 38.33° C | 36% | 1013.8 hPa | 0 mm | - | 412 W/m² | - |
| 1787867386 | 37.78° C | 36% | 1014.1 hPa | 0 mm | - | 416 W/m² | - |
| 1787867082 | 37.78° C | 37% | 1013.9 hPa | 0 mm | - | 409 W/m² | - |
| 1787866777 | 38.33° C | 37% | 1014.1 hPa | 0 mm | - | 427 W/m² | - |
| 1787866477 | 37.78° C | 38% | 1014.1 hPa | 0 mm | - | 492 W/m² | - |
| 1787866175 | 37.22° C | 38% | 1014 hPa | 0 mm | - | 495 W/m² | - |
| 1787865871 | 37.78° C | 37% | 1014.1 hPa | 0 mm | - | 336 W/m² | - |
| 1787865566 | 37.78° C | 37% | 1014 hPa | 0 mm | - | 407 W/m² | - |
* Rain latest hour (hover to see other rain measurements)
** Current wind speed in m/s (hover to see current wind gust speed)